| time (UTC) | temp C | wind direction | speed KPH | gust KPH | rain 1hr cm | rain 24hr cm | rain mn cm | humidity % | barometer mb |
| 20260906191604 | 20 | 192 | 1.6 | 3.2 | 0.18 | 0.84 | 0.84 | 95 | 1015.7 |
| 20260906190604 | 20 | 235 | 0.0 | 4.8 | 0.18 | 0.81 | 0.81 | 94 | 1015.8 |
| 20260906190112 | 20 | 234 | 1.6 | 4.8 | 0.18 | 0.79 | 0.79 | 94 | 1015.7 |
| 20260906185604 | 20 | 234 | 0.0 | 1.6 | 0.18 | 0.76 | 0.76 | 94 | 1015.6 |
| 20260906184604 | 20 | 234 | 0.0 | 4.8 | 0.20 | 0.74 | 0.74 | 94 | 1015.6 |
| 20260906184104 | 20 | 300 | 1.6 | 3.2 | 0.25 | 0.74 | 0.74 | 94 | 1015.6 |
| 20260906183604 | 20 | 300 | 0.0 | 3.2 | 0.28 | 0.74 | 0.74 | 94 | 1015.6 |
| 20260906182605 | 19 | 300 | 1.6 | 8.0 | 0.25 | 0.69 | 0.69 | 93 | 1015.7 |
| 20260906182104 | 20 | 300 | 3.2 | 8.0 | 0.25 | 0.69 | 0.69 | 92 | 1015.6 |
| 20260906181604 | 20 | 300 | 4.8 | 8.0 | 0.23 | 0.66 | 0.66 | 93 | 1015.6 |
| 20260906181104 | 20 | 300 | 1.6 | 4.8 | 0.23 | 0.66 | 0.66 | 93 | 1015.6 |
| 20260906180604 | 20 | 300 | 0.0 | 4.8 | 0.20 | 0.64 | 0.64 | 93 | 1015.6 |
| 20260906175103 | 20 | 300 | 4.8 | 8.0 | 0.13 | 0.53 | 0.53 | 92 | 1015.4 |
| 20260906174604 | 20 | 300 | 3.2 | 9.7 | 0.10 | 0.51 | 0.51 | 92 | 1015.2 |
| 20260906174104 | 20 | 291 | 0.0 | 9.7 | 0.05 | 0.46 | 0.46 | 92 | 1015.2 |
| 20260906172604 | 20 | 292 | 0.0 | 3.2 | 0.03 | 0.43 | 0.43 | 92 | 1014.8 |
| 20260906172105 | 20 | 292 | 0.0 | 4.8 | 0.03 | 0.43 | 0.43 | 92 | 1014.6 |
| 20260906171604 | 20 | 292 | 3.2 | 4.8 | 0.03 | 0.43 | 0.43 | 92 | 1014.5 |
| 20260906171108 | 20 | 292 | 3.2 | 8.0 | 0.03 | 0.43 | 0.43 | 92 | 1014.4 |
| 20260906170604 | 20 | 292 | 4.8 | 8.0 | 0.03 | 0.43 | 0.43 | 92 | 1014.4 |
| 20260906170110 | 21 | 336 | 3.2 | 4.8 | 0.03 | 0.43 | 0.43 | 93 | 1014.2 |
| 20260906165603 | 21 | 73 | 3.2 | 4.8 | 0.03 | 0.43 | 0.43 | 93 | 1014.2 |
| 20260906165104 | 21 | 73 | 1.6 | 4.8 | 0.03 | 0.43 | 0.43 | 93 | 1013.8 |
| 20260906163604 | 20 | 80 | 1.6 | 3.2 | 0.05 | 0.43 | 0.43 | 93 | 1013.8 |
| 20260906163104 | 20 | 80 | 0.0 | 1.6 | 0.05 | 0.41 | 0.41 | 92 | 1013.8 |
| 20260906162604 | 20 | 80 | 0.0 | 1.6 | 0.08 | 0.41 | 0.41 | 92 | 1013.8 |
| 20260906161604 | 20 | 80 | 0.0 | 1.6 | 0.10 | 0.41 | 0.41 | 92 | 1013.8 |
| 20260906155604 | 20 | 46 | 0.0 | 1.6 | 0.10 | 0.41 | 0.41 | 91 | 1013.9 |
| 20260906155105 | 20 | 46 | 0.0 | 1.6 | 0.10 | 0.41 | 0.41 | 91 | 1014.1 |
| 20260906154604 | 20 | 46 | 0.0 | 1.6 | 0.10 | 0.41 | 0.41 | 91 | 1014.2 |
| 20260906154104 | 20 | 46 | 0.0 | 1.6 | 0.08 | 0.38 | 0.38 | 91 | 1014.2 |
| 20260906153604 | 20 | 46 | 0.0 | 1.6 | 0.08 | 0.38 | 0.38 | 91 | 1014.1 |
| 20260906153104 | 20 | 46 | 0.0 | 3.2 | 0.05 | 0.36 | 0.36 | 91 | 1014.2 |
| 20260906152604 | 20 | 46 | 0.0 | 3.2 | 0.03 | 0.33 | 0.33 | 91 | 1014.3 |
| 20260906152104 | 20 | 46 | 1.6 | 3.2 | 0.03 | 0.33 | 0.33 | 91 | 1014.2 |
| 20260906151605 | 20 | 46 | 0.0 | 4.8 | 0.00 | 0.30 | 0.30 | 91 | 1014.1 |
| 20260906150109 | 20 | 46 | 0.0 | 1.6 | 0.00 | 0.30 | 0.30 | 90 | 1013.8 |
| 20260906145604 | 20 | 46 | 0.0 | 1.6 | 0.00 | 0.30 | 0.30 | 90 | 1013.8 |
| 20260906145104 | 20 | 46 | 0.0 | 1.6 | 0.00 | 0.30 | 0.30 | 90 | 1013.8 |
| 20260906144604 | 20 | 46 | 0.0 | 3.2 | 0.00 | 0.30 | 0.30 | 90 | 1013.8 |
| 20260906144104 | 20 | 46 | 0.0 | 3.2 | 0.00 | 0.30 | 0.30 | 91 | 1013.7 |
| 20260906143604 | 20 | 46 | 1.6 | 3.2 | 0.00 | 0.30 | 0.30 | 90 | 1013.7 |
| 20260906142604 | 20 | 46 | 0.0 | 3.2 | 0.00 | 0.30 | 0.30 | 90 | 1013.5 |
| 20260906142104 | 20 | 46 | 1.6 | 3.2 | 0.00 | 0.30 | 0.30 | 90 | 1013.5 |
| 20260906141604 | 20 | 46 | 0.0 | 3.2 | 0.00 | 0.30 | 0.30 | 90 | 1013.3 |
| 20260906141104 | 20 | 46 | 1.6 | 3.2 | 0.00 | 0.30 | 0.30 | 89 | 1013.3 |
| 20260906140604 | 20 | 46 | 1.6 | 3.2 | 0.00 | 0.30 | 0.30 | 89 | 1013.2 |
| 20260906140105 | 20 | 46 | 1.6 | 3.2 | 0.00 | 0.30 | 0.30 | 89 | 1013.0 |
| 20260906135604 | 20 | 46 | 0.0 | 3.2 | 0.00 | 0.30 | 0.30 | 89 | 1012.8 |
| 20260906135104 | 20 | 46 | 0.0 | 4.8 | 0.00 | 0.30 | 0.30 | 89 | 1012.7 |
| 20260906134604 | 20 | 46 | 0.0 | 4.8 | 0.00 | 0.30 | 0.30 | 88 | 1012.7 |
| 20260906134104 | 20 | 46 | 1.6 | 4.8 | 0.00 | 0.30 | 0.30 | 88 | 1012.4 |
| 20260906133604 | 20 | 46 | 0.0 | 4.8 | 0.03 | 0.30 | 0.30 | 88 | 1012.2 |
| 20260906133104 | 20 | 46 | 1.6 | 4.8 | 0.03 | 0.30 | 0.30 | 88 | 1012.2 |
| 20260906132604 | 20 | 46 | 0.0 | 4.8 | 0.03 | 0.30 | 0.30 | 88 | 1012.2 |
| 20260906132104 | 20 | 46 | 0.0 | 3.2 | 0.05 | 0.30 | 0.30 | 87 | 1011.9 |
| 20260906131604 | 20 | 46 | 0.0 | 3.2 | 0.05 | 0.30 | 0.30 | 87 | 1011.7 |
| 20260906131107 | 20 | 46 | 0.0 | 3.2 | 0.05 | 0.30 | 0.30 | 87 | 1011.7 |
| 20260906130108 | 20 | 46 | 1.6 | 3.2 | 0.05 | 0.30 | 0.30 | 86 | 1011.8 |
| 20260906125604 | 20 | 46 | 0.0 | 4.8 | 0.05 | 0.30 | 0.30 | 86 | 1011.8 |
| 20260906125104 | 20 | 46 | 3.2 | 4.8 | 0.05 | 0.30 | 0.30 | 86 | 1011.7 |
| 20260906124605 | 20 | 45 | 1.6 | 4.8 | 0.08 | 0.30 | 0.30 | 87 | 1011.9 |
| 20260906124104 | 20 | 46 | 1.6 | 8.0 | 0.08 | 0.30 | 0.30 | 87 | 1012.1 |
| 20260906123604 | 20 | 46 | 1.6 | 8.0 | 0.05 | 0.28 | 0.28 | 87 | 1012.0 |
| 20260906123104 | 20 | 69 | 0.0 | 3.2 | 0.05 | 0.28 | 0.28 | 87 | 1012.0 |
| 20260906122104 | 20 | 69 | 0.0 | 4.8 | 0.05 | 0.25 | 0.25 | 86 | 1012.3 |
| 20260906121604 | 20 | 69 | 0.0 | 4.8 | 0.05 | 0.25 | 0.25 | 86 | 1012.3 |
| 20260906121104 | 20 | 68 | 1.6 | 4.8 | 0.08 | 0.25 | 0.25 | 86 | 1012.3 |
| 20260906120604 | 20 | 69 | 1.6 | 4.8 | 0.10 | 0.25 | 0.25 | 86 | 1012.3 |
| 20260906120104 | 20 | 77 | 1.6 | 4.8 | 0.15 | 0.25 | 0.25 | 86 | 1012.3 |
| 20260906115604 | 20 | 77 | 0.0 | 4.8 | 0.18 | 0.25 | 0.25 | 85 | 1012.3 |
| 20260906115104 | 20 | 74 | 0.0 | 4.8 | 0.23 | 0.25 | 0.25 | 85 | 1012.5 |
| 20260906114604 | 20 | 78 | 0.0 | 4.8 | 0.23 | 0.23 | 0.23 | 85 | 1012.7 |
| 20260906114104 | 20 | 78 | 0.0 | 4.8 | 0.23 | 0.23 | 0.23 | 84 | 1012.7 |
| 20260906113604 | 20 | 73 | 0.0 | 4.8 | 0.23 | 0.23 | 0.23 | 83 | 1012.8 |
| 20260906113104 | 20 | 73 | 3.2 | 4.8 | 0.23 | 0.23 | 0.23 | 82 | 1012.7 |
| 20260906112605 | 20 | 69 | 1.6 | 4.8 | 0.23 | 0.23 | 0.23 | 80 | 1012.8 |
| 20260906112104 | 20 | 68 | 1.6 | 4.8 | 0.20 | 0.20 | 0.20 | 79 | 1012.8 |
| 20260906111604 | 21 | 65 | 1.6 | 4.8 | 0.20 | 0.20 | 0.20 | 77 | 1012.9 |
| 20260906111106 | 21 | 119 | 0.0 | 3.2 | 0.18 | 0.18 | 0.18 | 76 | 1013.1 |
| 20260906110604 | 21 | 194 | 0.0 | 3.2 | 0.15 | 0.15 | 0.15 | 75 | 1013.1 |
| 20260906110110 | 22 | 194 | 1.6 | 4.8 | 0.13 | 0.13 | 0.13 | 73 | 1013.2 |
| 20260906105604 | 22 | 194 | 1.6 | 4.8 | 0.08 | 0.08 | 0.08 | 69 | 1013.2 |
| 20260906105104 | 22 | 194 | 1.6 | 4.8 | 0.03 | 0.03 | 0.03 | 67 | 1013.0 |
| 20260906104604 | 22 | 194 | 1.6 | 3.2 | 0.00 | 0.00 | 0.00 | 65 | 1013.0 |
| 20260906104104 | 22 | 194 | 0.0 | 1.6 | 0.00 | 0.00 | 0.00 | 64 | 1012.9 |
| 20260906103104 | 22 | 194 | 0.0 | 4.8 | 0.00 | 0.00 | 0.00 | 62 | 1012.5 |
| 20260906102604 | 22 | 198 | 1.6 | 4.8 | 0.00 | 0.00 | 0.00 | 62 | 1012.4 |
| 20260906102104 | 22 | 271 | 0.0 | 3.2 | 0.00 | 0.00 | 0.00 | 62 | 1012.4 |
| 20260906101605 | 22 | 271 | 1.6 | 1.6 | 0.00 | 0.00 | 0.00 | 61 | 1012.4 |
| 20260906100604 | 22 | 271 | 0.0 | 3.2 | 0.00 | 0.00 | 0.00 | 57 | 1012.5 |
| 20260906100104 | 22 | 271 | 1.6 | 3.2 | 0.00 | 0.00 | 0.00 | 58 | 1012.5 |
| 20260906095604 | 22 | 271 | 0.0 | 1.6 | 0.00 | 0.00 | 0.00 | 57 | 1012.6 |
| 20260906095103 | 22 | 271 | 0.0 | 1.6 | 0.00 | 0.00 | 0.00 | 57 | 1012.6 |
| 20260906094604 | 23 | 271 | 0.0 | 1.6 | 0.00 | 0.00 | 0.00 | 57 | 1012.6 |
| 20260906094104 | 23 | 271 | 0.0 | 1.6 | 0.00 | 0.00 | 0.00 | 56 | 1012.6 |
| 20260906093603 | 23 | 271 | 0.0 | 1.6 | 0.00 | 0.00 | 0.00 | 55 | 1012.5 |
| 20260906093103 | 23 | 271 | 0.0 | 1.6 | 0.00 | 0.00 | 0.00 | 49 | 1012.5 |
| 20260906092604 | 23 | 271 | 0.0 | 1.6 | 0.00 | 0.00 | 0.00 | 49 | 1012.6 |
| 20260906092103 | 23 | 271 | 0.0 | 1.6 | 0.00 | 0.00 | 0.00 | 47 | 1012.7 |
| 20260906091605 | 23 | 271 | 0.0 | 1.6 | 0.00 | 0.00 | 0.00 | 47 | 1012.7 |
| 20260906091105 | 23 | 271 | 0.0 | 1.6 | 0.00 | 0.00 | 0.00 | 47 | 1012.8 |
| 20260906090604 | 23 | 271 | 0.0 | 0.0 | 0.00 | 0.00 | 0.00 | 46 | 1012.9 |
| 20260906090108 | 24 | 271 | 0.0 | 1.6 | 0.00 | 0.00 | 0.00 | 45 | 1013.0 |
| 20260906084603 | 24 | 271 | 0.0 | 1.6 | 0.00 | 0.00 | 0.00 | 44 | 1013.0 |
| 20260906083604 | 24 | 271 | 0.0 | 0.0 | 0.00 | 0.00 | 0.00 | 44 | 1013.2 |
| 20260906083103 | 24 | 271 | 0.0 | 1.6 | 0.00 | 0.00 | 0.00 | 45 | 1013.2 |
| 20260906082604 | 24 | 271 | 0.0 | 3.2 | 0.00 | 0.00 | 0.00 | 45 | 1013.2 |
| 20260906082104 | 24 | 271 | 1.6 | 3.2 | 0.00 | 0.00 | 0.00 | 45 | 1013.2 |
| 20260906081604 | 24 | 271 | 0.0 | 0.0 | 0.00 | 0.00 | 0.00 | 43 | 1013.2 |
| 20260906081104 | 24 | 271 | 0.0 | 0.0 | 0.00 | 0.00 | 0.00 | 44 | 1013.2 |
| 20260906080604 | 24 | 271 | 0.0 | 0.0 | 0.00 | 0.00 | 0.00 | 46 | 1013.2 |
| 20260906080113 | 24 | 271 | 0.0 | 0.0 | 0.00 | 0.00 | 0.00 | 46 | 1013.1 |
| 20260906075604 | 24 | 271 | 0.0 | 0.0 | 0.00 | 0.00 | 0.00 | 45 | 1013.2 |
| 20260906075104 | 24 | 271 | 0.0 | 0.0 | 0.00 | 0.00 | 0.00 | 44 | 1013.1 |
| 20260906074604 | 24 | 271 | 0.0 | 3.2 | 0.00 | 0.00 | 0.00 | 44 | 1013.1 |
| 20260906074104 | 24 | 271 | 0.0 | 3.2 | 0.00 | 0.00 | 0.00 | 44 | 1013.2 |
| 20260906073603 | 24 | 271 | 1.6 | 3.2 | 0.00 | 0.00 | 0.00 | 43 | 1013.2 |
| 20260906073104 | 24 | 271 | 0.0 | 0.0 | 0.00 | 0.00 | 0.00 | 43 | 1013.1 |
| 20260906072104 | 24 | 271 | 0.0 | 3.2 | 0.00 | 0.00 | 0.00 | 43 | 1013.0 |
| 20260906071603 | 24 | 271 | 0.0 | 3.2 | 0.00 | 0.00 | 0.00 | 43 | 1013.0 |
| 20260906070604 | 25 | 271 | 0.0 | 1.6 | 0.00 | 0.00 | 0.00 | 42 | 1013.0 |
| 20260906070108 | 25 | 271 | 0.0 | 1.6 | 0.00 | 0.00 | 0.00 | 42 | 1013.1 |
| 20260906065604 | 25 | 271 | 1.6 | 1.6 | 0.00 | 0.00 | 0.00 | 41 | 1013.1 |
| 20260906065104 | 25 | 271 | 1.6 | 3.2 | 0.00 | 0.00 | 0.00 | 40 | 1012.9 |
| 20260906064604 | 25 | 271 | 1.6 | 3.2 | 0.00 | 0.00 | 0.00 | 41 | 1012.9 |
| 20260906064104 | 25 | 271 | 1.6 | 3.2 | 0.00 | 0.00 | 0.00 | 40 | 1013.0 |
| 20260906063603 | 25 | 271 | 0.0 | 3.2 | 0.00 | 0.00 | 0.00 | 40 | 1013.1 |
| 20260906063104 | 25 | 271 | 0.0 | 1.6 | 0.00 | 0.00 | 0.00 | 40 | 1013.2 |
| 20260906062603 | 25 | 271 | 0.0 | 0.0 | 0.00 | 0.00 | 0.00 | 40 | 1013.3 |
| 20260906061104 | 25 | 271 | 0.0 | 1.6 | 0.00 | 0.00 | 0.00 | 42 | 1013.3 |
| 20260906060604 | 25 | 271 | 0.0 | 0.0 | 0.00 | 0.00 | 0.00 | 41 | 1013.3 |
| 20260906060108 | 25 | 271 | 0.0 | 1.6 | 0.00 | 0.00 | 0.00 | 41 | 1013.3 |
| 20260906055604 | 25 | 271 | 0.0 | 1.6 | 0.00 | 0.00 | 0.00 | 41 | 1013.3 |
| 20260906055104 | 25 | 271 | 0.0 | 1.6 | 0.00 | 0.00 | 0.00 | 41 | 1013.3 |
| 20260906054604 | 25 | 271 | 0.0 | 0.0 | 0.00 | 0.00 | 0.00 | 41 | 1013.3 |
| 20260906054105 | 25 | 271 | 0.0 | 1.6 | 0.00 | 0.00 | 0.00 | 41 | 1013.3 |
| 20260906053104 | 25 | 271 | 0.0 | 0.0 | 0.00 | 0.00 | 0.00 | 40 | 1013.3 |
| 20260906052604 | 25 | 271 | 0.0 | 1.6 | 0.00 | 0.00 | 0.00 | 39 | 1013.3 |
| 20260906052105 | 25 | 271 | 0.0 | 1.6 | 0.00 | 0.00 | 0.00 | 38 | 1013.2 |
| 20260906051603 | 25 | 271 | 0.0 | 1.6 | 0.00 | 0.00 | 0.00 | 39 | 1013.3 |
| 20260906051104 | 25 | 271 | 0.0 | 0.0 | 0.00 | 0.00 | 0.00 | 39 | 1013.3 |
| 20260906050604 | 25 | 271 | 0.0 | 0.0 | 0.00 | 0.00 | 0.00 | 38 | 1013.3 |
| 20260906045604 | 25 | 271 | 0.0 | 1.6 | 0.00 | 0.00 | 0.00 | 38 | 1013.4 |
| 20260906045104 | 25 | 271 | 0.0 | 1.6 | 0.00 | 0.00 | 0.00 | 39 | 1013.3 |
| 20260906044604 | 25 | 271 | 0.0 | 1.6 | 0.00 | 0.00 | 0.00 | 40 | 1013.3 |
| 20260906044104 | 25 | 271 | 0.0 | 1.6 | 0.00 | 0.00 | 0.00 | 40 | 1013.3 |
| 20260906042604 | 25 | 271 | 0.0 | 1.6 | 0.00 | 0.00 | 0.00 | 40 | 1013.3 |
| 20260906042106 | 26 | 271 | 0.0 | 1.6 | 0.00 | 0.00 | 0.00 | 40 | 1013.3 |
| 20260906041604 | 26 | 271 | 0.0 | 1.6 | 0.00 | 0.00 | 0.00 | 40 | 1013.4 |
| 20260906041103 | 26 | 271 | 0.0 | 1.6 | 0.00 | 0.00 | 0.00 | 39 | 1013.3 |
| 20260906040604 | 26 | 271 | 0.0 | 1.6 | 0.00 | 0.00 | 0.00 | 39 | 1013.4 |
| 20260906040105 | 25 | 271 | 0.0 | 0.0 | 0.00 | 0.00 | 0.00 | 38 | 1013.5 |
| 20260906035604 | 26 | 271 | 0.0 | 0.0 | 0.00 | 0.00 | 0.00 | 39 | 1013.4 |
| 20260906035103 | 26 | 271 | 0.0 | 1.6 | 0.00 | 0.00 | 0.00 | 38 | 1013.4 |
| 20260906034604 | 26 | 271 | 0.0 | 4.8 | 0.00 | 0.00 | 0.00 | 38 | 1013.4 |
| 20260906033104 | 26 | 270 | 3.2 | 11.3 | 0.00 | 0.00 | 0.00 | 38 | 1013.3 |
| 20260906032603 | 26 | 272 | 8.0 | 11.3 | 0.00 | 0.00 | 0.00 | 37 | 1013.2 |
| 20260906032104 | 27 | 276 | 4.8 | 8.0 | 0.00 | 0.00 | 0.00 | 37 | 1013.2 |
| 20260906031604 | 27 | 272 | 3.2 | 8.0 | 0.00 | 0.00 | 0.00 | 36 | 1013.3 |
| 20260906031106 | 27 | 221 | 0.0 | 4.8 | 0.00 | 0.00 | 0.00 | 36 | 1013.1 |
| 20260906030604 | 27 | 195 | 0.0 | 4.8 | 0.00 | 0.00 | 0.00 | 35 | 1013.2 |
| 20260906030109 | 27 | 178 | 1.6 | 3.2 | 0.00 | 0.00 | 0.00 | 35 | 1013.0 |
| 20260906024604 | 27 | 209 | 0.0 | 3.2 | 0.00 | 0.00 | 0.00 | 34 | 1012.9 |
| 20260906024104 | 27 | 209 | 1.6 | 4.8 | 0.00 | 0.00 | 0.00 | 34 | 1012.9 |
| 20260906023604 | 28 | 209 | 1.6 | 4.8 | 0.00 | 0.00 | 0.00 | 34 | 1012.9 |
| 20260906023104 | 28 | 209 | 0.0 | 4.8 | 0.00 | 0.00 | 0.00 | 34 | 1012.9 |
| 20260906022604 | 28 | 209 | 1.6 | 4.8 | 0.00 | 0.00 | 0.00 | 34 | 1012.8 |
| 20260906022104 | 28 | 209 | 0.0 | 8.0 | 0.00 | 0.00 | 0.00 | 33 | 1012.7 |
| 20260906021604 | 28 | 209 | 1.6 | 8.0 | 0.00 | 0.00 | 0.00 | 33 | 1012.5 |
| 20260906021106 | 28 | 221 | 1.6 | 8.0 | 0.00 | 0.00 | 0.00 | 33 | 1012.5 |
| 20260906020604 | 29 | 248 | 1.6 | 8.0 | 0.00 | 0.00 | 0.00 | 33 | 1012.5 |
| 20260906020104 | 29 | 241 | 3.2 | 9.7 | 0.00 | 0.00 | 0.00 | 31 | 1012.4 |
| 20260906015604 | 29 | 225 | 3.2 | 12.9 | 0.00 | 0.00 | 0.00 | 31 | 1012.4 |
| 20260906014603 | 30 | 245 | 4.8 | 12.9 | 0.00 | 0.00 | 0.00 | 31 | 1012.4 |
| 20260906014103 | 30 | 249 | 8.0 | 12.9 | 0.00 | 0.00 | 0.00 | 31 | 1012.4 |
| 20260906013604 | 30 | 240 | 6.4 | 12.9 | 0.00 | 0.00 | 0.00 | 31 | 1012.4 |
| 20260906012604 | 30 | 238 | 8.0 | 11.3 | 0.00 | 0.00 | 0.00 | 30 | 1012.4 |
| 20260906012104 | 30 | 222 | 4.8 | 12.9 | 0.00 | 0.00 | 0.00 | 31 | 1012.5 |
| 20260906011604 | 30 | 239 | 8.0 | 12.9 | 0.00 | 0.00 | 0.00 | 30 | 1012.4 |
| 20260906011106 | 30 | 246 | 6.4 | 12.9 | 0.00 | 0.00 | 0.00 | 31 | 1012.4 |
| 20260906010604 | 30 | 258 | 8.0 | 12.9 | 0.00 | 0.00 | 0.00 | 31 | 1012.5 |
| 20260906010107 | 31 | 246 | 4.8 | 12.9 | 0.00 | 0.00 | 0.00 | 31 | 1012.4 |
| 20260906005604 | 31 | 265 | 8.0 | 11.3 | 0.00 | 0.00 | 0.00 | 29 | 1012.5 |
| 20260906005103 | 31 | 194 | 6.4 | 9.7 | 0.00 | 0.00 | 0.00 | 29 | 1012.5 |
| 20260906004604 | 30 | 229 | 4.8 | 12.9 | 0.00 | 0.00 | 0.00 | 30 | 1012.5 |
| 20260906004104 | 30 | 267 | 8.0 | 12.9 | 0.00 | 0.00 | 0.00 | 31 | 1012.5 |
| 20260906003104 | 30 | 228 | 8.0 | 12.9 | 0.00 | 0.00 | 0.00 | 31 | 1012.4 |
| 20260906002604 | 30 | 262 | 6.4 | 11.3 | 0.00 | 0.00 | 0.00 | 32 | 1012.4 |
| 20260906002105 | 30 | 229 | 4.8 | 12.9 | 0.00 | 0.00 | 0.00 | 32 | 1012.4 |
| 20260906001603 | 30 | 278 | 8.0 | 12.9 | 0.00 | 0.00 | 0.00 | 33 | 1012.4 |
| 20260906000603 | 30 | 280 | 8.0 | 16.1 | 0.00 | 0.00 | 0.00 | 31 | 1012.4 |
| 20260905235604 | 30 | 255 | 8.0 | 12.9 | 0.00 | 0.00 | 0.00 | 32 | 1012.4 |
| 20260905235104 | 30 | 287 | 8.0 | 14.5 | 0.00 | 0.00 | 0.00 | 33 | 1012.4 |
| 20260905234104 | 31 | 260 | 6.4 | 14.5 | 0.00 | 0.00 | 0.00 | 30 | 1012.4 |
| 20260905233604 | 31 | 261 | 3.2 | 16.1 | 0.00 | 0.00 | 0.00 | 29 | 1012.4 |
| 20260905233103 | 31 | 267 | 8.0 | 16.1 | 0.00 | 0.00 | 0.00 | 29 | 1012.4 |
| 20260905232604 | 31 | 220 | 4.8 | 16.1 | 0.00 | 0.00 | 0.00 | 29 | 1012.4 |
| 20260905232104 | 31 | 225 | 8.0 | 20.9 | 0.00 | 0.00 | 0.00 | 29 | 1012.4 |
| 20260905231104 | 31 | 165 | 6.4 | 16.1 | 0.00 | 0.00 | 0.00 | 30 | 1012.5 |
| 20260905230604 | 31 | 226 | 6.4 | 16.1 | 0.00 | 0.00 | 0.00 | 30 | 1012.5 |
| 20260905230107 | 31 | 244 | 8.0 | 12.9 | 0.00 | 0.00 | 0.00 | 30 | 1012.5 |
| 20260905225104 | 31 | 252 | 4.8 | 12.9 | 0.00 | 0.00 | 0.00 | 29 | 1012.6 |
| 20260905224604 | 31 | 251 | 8.0 | 12.9 | 0.00 | 0.00 | 0.00 | 29 | 1012.6 |
| 20260905223604 | 31 | 254 | 9.7 | 16.1 | 0.00 | 0.00 | 0.00 | 27 | 1012.7 |
| 20260905223104 | 31 | 249 | 8.0 | 20.9 | 0.00 | 0.00 | 0.00 | 28 | 1012.7 |
| 20260905222104 | 32 | 259 | 8.0 | 19.3 | 0.00 | 0.00 | 0.00 | 26 | 1012.8 |
| 20260905221603 | 32 | 269 | 9.7 | 19.3 | 0.00 | 0.00 | 0.00 | 26 | 1012.9 |
| 20260905221103 | 32 | 240 | 9.7 | 19.3 | 0.00 | 0.00 | 0.00 | 28 | 1012.9 |
| 20260905220604 | 31 | 257 | 6.4 | 20.9 | 0.00 | 0.00 | 0.00 | 27 | 1013.0 |
| 20260905220113 | 31 | 185 | 4.8 | 20.9 | 0.00 | 0.00 | 0.00 | 27 | 1013.1 |
| 20260905215603 | 31 | 282 | 8.0 | 19.3 | 0.00 | 0.00 | 0.00 | 26 | 1013.1 |
| 20260905215103 | 31 | 273 | 8.0 | 19.3 | 0.00 | 0.00 | 0.00 | 26 | 1013.1 |
| 20260905214604 | 31 | 257 | 9.7 | 16.1 | 0.00 | 0.00 | 0.00 | 25 | 1013.2 |
| 20260905213604 | 32 | 261 | 8.0 | 16.1 | 0.00 | 0.00 | 0.00 | 25 | 1013.3 |
| 20260905213104 | 32 | 260 | 8.0 | 16.1 | 0.00 | 0.00 | 0.00 | 25 | 1013.4 |
| 20260905212606 | 31 | 262 | 11.3 | 19.3 | 0.00 | 0.00 | 0.00 | 25 | 1013.4 |
| 20260905212105 | 32 | 272 | 9.7 | 19.3 | 0.00 | 0.00 | 0.00 | 25 | 1013.4 |
| 20260905211603 | 32 | 271 | 11.3 | 19.3 | 0.00 | 0.00 | 0.00 | 24 | 1013.4 |
| 20260905211104 | 32 | 276 | 9.7 | 19.3 | 0.00 | 0.00 | 0.00 | 25 | 1013.4 |
| 20260905210604 | 32 | 302 | 6.4 | 19.3 | 0.00 | 0.00 | 0.00 | 25 | 1013.5 |
| 20260905210109 | 32 | 264 | 9.7 | 20.9 | 0.00 | 0.00 | 0.00 | 25 | 1013.5 |
| 20260905205604 | 32 | 275 | 11.3 | 20.9 | 0.00 | 0.00 | 0.00 | 25 | 1013.4 |
| 20260905205104 | 32 | 254 | 9.7 | 20.9 | 0.00 | 0.00 | 0.00 | 22 | 1013.6 |
| 20260905204604 | 32 | 267 | 14.5 | 20.9 | 0.00 | 0.00 | 0.00 | 24 | 1013.6 |
| 20260905204103 | 32 | 290 | 11.3 | 14.5 | 0.00 | 0.00 | 0.00 | 22 | 1013.7 |
| 20260905203104 | 31 | 252 | 8.0 | 22.5 | 0.00 | 0.00 | 0.00 | 22 | 1013.7 |
| 20260905202603 | 31 | 280 | 11.3 | 19.3 | 0.00 | 0.00 | 0.00 | 23 | 1013.7 |
| 20260905202103 | 31 | 267 | 9.7 | 19.3 | 0.00 | 0.00 | 0.00 | 22 | 1013.7 |
| 20260905201603 | 31 | 270 | 8.0 | 19.3 | 0.00 | 0.00 | 0.00 | 23 | 1013.7 |
| 20260905200604 | 31 | 272 | 9.7 | 16.1 | 0.00 | 0.00 | 0.00 | 21 | 1013.8 |
| 20260905200111 | 31 | 273 | 9.7 | 16.1 | 0.00 | 0.00 | 0.00 | 20 | 1013.8 |
| 20260905195604 | 31 | 282 | 6.4 | 19.3 | 0.00 | 0.00 | 0.00 | 19 | 1013.8 |
| 20260905195104 | 31 | 273 | 9.7 | 19.3 | 0.00 | 0.00 | 0.00 | 21 | 1014.0 |
| 20260905194604 | 30 | 291 | 6.4 | 19.3 | 0.00 | 0.00 | 0.00 | 20 | 1014.0 |
| 20260905194104 | 30 | 291 | 8.0 | 19.3 | 0.00 | 0.00 | 0.00 | 22 | 1014.1 |
| 20260905193603 | 31 | 274 | 9.7 | 16.1 | 0.00 | 0.00 | 0.00 | 19 | 1014.2 |
| 20260905192604 | 31 | 301 | 9.7 | 12.9 | 0.00 | 0.00 | 0.00 | 21 | 1014.3 |